Regional Weather Roundup
Issued by NWS

Home | Current Version | Previous Version | Text Only | Print | Product List | Glossary On
Versions: 1 2 3 4 5 6 7 8 9 10 11 12 13 14 15 16 17 18 19 20 21 22 23 24 25 26 27 28 29 30 31 32 33 34 35 36 37 38 39 40 41 42 43 44 45 46 47 48 49 50
000
ASUS45 KCYS 301110
RWRWY

WYOMING REGIONAL WEATHER ROUNDUP
NATIONAL WEATHER SERVICE CHEYENNE WY
500 AM MDT WED JUL 30 2014

NOTE:  "FAIR" INDICATES FEW OR NO CLOUDS BELOW 12,000 FEET
WITH NO SIGNIFICANT WEATHER AND/OR OBSTRUCTIONS TO VISIBILITY.

WYZ001-301200-
YELLOWSTONE NATIONAL PARK

CITY           SKY/WX    TMP DP  RH WIND       PRES   REMARKS
LK YELLOWSTONE   N/A     41  40  96 CALM      30.48R
W YELLOWSTONE  NOT AVBL

$$
WYZ002>013-054>058-071-098>099-301200-
NORTHERN WYOMING

CITY           SKY/WX    TMP DP  RH WIND       PRES   REMARKS
JACKSON        PTCLDY    52  46  82 N15       30.36R
CODY           NOT AVBL
GREYBULL       PTCLDY    55  51  86 SE5       30.27R
WORLAND        MOCLDY    55  53  93 S3        30.28R
SHERIDAN       CLEAR     50  43  77 CALM      30.25R
BUFFALO        CLEAR     58  43  57 W7        30.31S
GILLETTE       CLEAR     57  51  80 CALM      30.27S
HULETT         FAIR      55  52  88 MISG      30.28
NEWCASTLE      FAIR      52  52 100 N7        30.29

$$
WYZ014>020-022>026-101>103-301200-
CENTRAL WYOMING

CITY           SKY/WX    TMP DP  RH WIND       PRES   REMARKS
BIG PINEY      CLOUDY    55  53  93 CALM      30.38S
PINEDALE       CLOUDY    52  50  93 NW3       30.39S
DUBOIS         FAIR      45  43  93 NW8       30.42R
LANDER         LGT RAIN  58  56  93 CALM      30.36R
RIVERTON       CLOUDY    56  53  90 N5        30.34S
CASPER         CLOUDY    53  51  93 N5        30.32S
DOUGLAS        CLOUDY    54  53  97 CALM      30.32S

$$
WYZ021-027>030-104>119-301200-
SOUTHERN WYOMING

CITY           SKY/WX    TMP DP  RH WIND       PRES   REMARKS
EVANSTON       CLOUDY    55  53  93 NE8       30.35R
KEMMERER       LGT RAIN  52  50  93 NE20      30.38S
FORT BRIDGER   CLOUDY    55  55 100 E10       30.38S
ROCK SPRINGS   CLOUDY    56  52  86 NE10      30.35R
DIXON          DRIZZLE   57  56  95 CALM      30.32S
RAWLINS        LGT RAIN  53  52  96 NE14      30.35R
SARATOGA       LGT RAIN  54  52  94 CALM      30.34S
LARAMIE        LGT RAIN  53  51  93 NE7       30.36S
CHEYENNE       LGT RAIN  56  54  93 NE3       30.33S
TORRINGTON     CLOUDY    60  56  86 N8        30.26R
PINE BLUFFS    LGT RAIN  57  55  94 CALM      30.30S

$$


USA.gov is the U.S. government's official web portal to all federal, state and local government web resources and services.